This demonstration page uses our WeatherBlox Daily Observations layout. Learn more.

Hourly Observations for June 5, 2017

Temp ( °F °C ) Dew Point ( °F °C ) Humidity (%) Winds ( mph kmh ) Pressure ( in mb ) Visibility ( mi km ) Precip ( " mm )
12:54 am 00:54 Clear 73 22.8 64 17.8 74 74 NW 3 6 29.82 1010 10 16.0934 0 0
1:54 am 01:54 Clear 70 21.1 63 17.2 79 79 NW 5 7 29.82 1010 10 16.0934 0 0
2:54 am 02:54 Clear 65 18.3 62 16.7 90 90 Calm 29.83 1010 10 16.0934 0 0
3:54 am 03:54 Clear 68 20 62 16.7 81 81 Calm 29.81 1010 10 16.0934 0 0
4:54 am 04:54 Clear 64 17.8 61 16.1 90 90 S 5 7 29.82 1010 10 16.0934 0 0
5:54 am 05:54 Clear 64 17.8 61 16.1 90 90 S 3 6 29.82 1010 10 16.0934 0 0
6:54 am 06:54 Sunny 67 19.4 62 16.7 84 84 Calm 29.83 1010 10 16.0934 0 0
7:54 am 07:54 Sunny 73 22.8 63 17.2 71 71 Calm 29.84 1010 10 16.0934 0 0
8:54 am 08:54 Cloudy 76 24.4 63 17.2 64 64 Calm 29.85 1011 10 16.0934 0 0
9:54 am 09:54 Mostly Cloudy 83 28.3 63 17.2 51 51 Calm 29.85 1011 10 16.0934 0 0
10:54 am 10:54 Sunny 87 30.6 61 16.1 42 42 N 5 7 29.85 1011 10 16.0934 0 0
11:54 am 11:54 Sunny 90 32.2 60 15.6 37 37 NW 5 7 29.84 1011 10 16.0934 0 0
12:54 pm 12:54 Sunny 92 33.3 52 11.1 26 26 undefined N/A 29.83 1010 10 16.0934 0 0
1:54 pm 13:54 Mostly Sunny 93 33.9 52 11.1 25 25 NE 5 7 29.83 1010 10 16.0934 0 0
2:54 pm 14:54 Sunny 94 34.4 54 12.2 26 26 N 7 11 29.82 1010 10 16.0934 0 0
3:54 pm 15:54 Mostly Cloudy 94 34.4 52 11.1 24 24 NNE 9 15 29.81 1009 10 16.0934 0 0
4:54 pm 16:54 Mostly Cloudy 91 32.8 50 10 25 25 ENE 9 15 29.81 1010 10 16.0934 0 0
5:54 pm 17:54 Partly Cloudy 91 32.8 50 10 25 25 E 6 9 29.81 1009 10 16.0934 0 0
6:54 pm 18:54 Sunny 90 32.2 48 8.9 24 24 ENE 9 15 29.81 1010 10 16.0934 0 0
7:54 pm 19:54 Sunny 86 30 52 11.1 31 31 ENE 8 13 29.83 1010 10 16.0934 0 0
8:54 pm 20:54 Sunny 82 27.8 49 9.4 32 32 E 10 17 29.85 1011 10 16.0934 0 0
9:54 pm 21:54 Clear 80 26.7 50 10 35 35 E 7 11 29.87 1011 10 16.0934 0 0
10:54 pm 22:54 Clear 75 23.9 52 11.1 45 45 Calm 29.89 1012 10 16.0934 0 0
11:54 pm 23:54 Clear 71 21.7 55 12.8 57 57 W 3 6 29.9 1013 10 16.0934 0 0

Powered by AerisWeather